TimeCST,TemperatureF,Dew PointF,Humidity,Sea Level PressureIn,VisibilityMPH,Wind Direction,Wind SpeedMPH,Gust SpeedMPH,PrecipitationIn,Events,Conditions,WindDirDegrees,DateUTC
12:53 AM,17.1,10.0,74,30.33,10.0,South,12.7,-,0.00,,Overcast,180,2013-12-25 06:53:00
1:53 AM,18.0,10.0,71,30.30,10.0,South,12.7,-,N/A,,Overcast,180,2013-12-25 07:53:00
2:53 AM,19.0,10.0,68,30.28,10.0,South,15.0,-,N/A,,Overcast,190,2013-12-25 08:53:00
3:48 AM,19.4,10.4,68,30.22,2.0,SSW,13.8,-,0.01,Snow,Light Snow,200,2013-12-25 09:48:00
3:53 AM,19.0,10.9,71,30.27,2.5,SSW,12.7,-,0.01,Snow,Light Snow,210,2013-12-25 09:53:00
4:10 AM,19.0,12.0,74,30.22,1.0,SSW,15.0,-,0.01,Snow,Light Snow,200,2013-12-25 10:10:00
4:14 AM,19.0,12.0,74,30.22,0.8,SSW,12.7,-,0.01,Snow,Light Snow,210,2013-12-25 10:14:00
4:36 AM,19.0,14.0,81,30.21,0.5,SSW,15.0,-,0.03,Snow,Snow,200,2013-12-25 10:36:00
4:53 AM,19.0,14.0,81,30.26,0.8,SSW,10.4,-,0.04,Snow,Light Snow,200,2013-12-25 10:53:00
4:59 AM,19.0,14.0,81,30.21,1.2,SSW,9.2,-,0.00,Snow,Light Snow,200,2013-12-25 10:59:00
5:13 AM,19.0,14.0,81,30.21,3.0,SSW,10.4,-,0.00,Snow,Light Snow,200,2013-12-25 11:13:00
5:53 AM,19.0,14.0,81,30.25,7.0,SSW,11.5,-,0.00,,Overcast,200,2013-12-25 11:53:00
6:53 AM,19.9,14.0,78,30.25,9.0,SSW,15.0,-,N/A,,Overcast,200,2013-12-25 12:53:00
7:53 AM,19.9,15.1,81,30.24,7.0,SSW,12.7,-,N/A,,Overcast,210,2013-12-25 13:53:00
8:53 AM,21.0,16.0,81,30.24,3.0,SW,11.5,-,N/A,,Haze,220,2013-12-25 14:53:00
9:09 AM,21.9,17.1,82,30.19,1.8,SW,11.5,-,N/A,,Haze,220,2013-12-25 15:09:00
9:19 AM,21.9,17.1,82,30.19,3.0,SW,10.4,-,N/A,,Haze,220,2013-12-25 15:19:00
9:53 AM,21.9,17.1,82,30.23,4.0,SW,10.4,-,N/A,,Haze,220,2013-12-25 15:53:00
10:53 AM,23.0,17.1,78,30.21,5.0,SW,11.5,-,N/A,,Haze,220,2013-12-25 16:53:00
11:53 AM,24.1,18.0,77,30.19,5.0,SW,9.2,-,N/A,,Haze,230,2013-12-25 17:53:00
12:53 PM,24.1,19.0,81,30.17,5.0,WSW,16.1,-,N/A,,Haze,250,2013-12-25 18:53:00
1:53 PM,24.1,19.0,81,30.15,3.0,WSW,11.5,-,N/A,,Haze,240,2013-12-25 19:53:00
2:53 PM,24.1,19.9,84,30.14,1.8,WSW,12.7,-,0.00,Snow,Light Snow,240,2013-12-25 20:53:00
3:53 PM,25.0,19.9,81,30.14,0.8,SW,8.1,-,0.00,Snow,Light Snow,230,2013-12-25 21:53:00
4:51 PM,24.8,21.2,86,30.10,1.0,WSW,6.9,-,0.01,Snow,Light Snow,250,2013-12-25 22:51:00
4:53 PM,24.1,21.0,88,30.14,1.0,WSW,5.8,-,0.01,Snow,Light Snow,250,2013-12-25 22:53:00
5:53 PM,24.1,19.9,84,30.14,2.5,WSW,6.9,-,0.00,Snow,Light Snow,250,2013-12-25 23:53:00
6:03 PM,24.1,19.9,84,30.10,3.0,WSW,8.1,-,0.00,,Overcast,250,2013-12-26 00:03:00
6:34 PM,24.1,19.9,84,30.09,2.5,WSW,9.2,-,0.00,Snow,Light Snow,240,2013-12-26 00:34:00
6:53 PM,24.1,19.9,84,30.13,1.5,WSW,10.4,-,0.00,Snow,Light Snow,240,2013-12-26 00:53:00
7:51 PM,24.8,19.4,80,30.08,1.2,WSW,11.5,-,0.00,Snow,Light Snow,250,2013-12-26 01:51:00
7:53 PM,24.1,19.9,84,30.11,1.2,WSW,10.4,-,0.00,Snow,Light Snow,250,2013-12-26 01:53:00
8:05 PM,24.1,19.9,84,30.07,2.0,WSW,10.4,-,0.00,Snow,Light Snow,250,2013-12-26 02:05:00
8:27 PM,24.1,19.0,81,30.07,1.5,WSW,11.5,-,0.00,Snow,Light Snow,250,2013-12-26 02:27:00
8:39 PM,24.1,19.0,81,30.07,2.5,WSW,10.4,-,0.00,Snow,Light Snow,250,2013-12-26 02:39:00
8:53 PM,24.1,19.0,81,30.11,1.5,WSW,9.2,-,0.00,Snow,Light Snow,250,2013-12-26 02:53:00
9:06 PM,24.1,19.0,81,30.07,2.5,West,10.4,-,0.00,Snow,Light Snow,260,2013-12-26 03:06:00
9:16 PM,24.1,19.0,81,30.07,3.0,WSW,9.2,-,0.00,Snow,Light Snow,250,2013-12-26 03:16:00
9:24 PM,24.1,19.0,81,30.06,3.0,WSW,8.1,-,0.00,,Haze,250,2013-12-26 03:24:00
9:53 PM,24.1,19.0,81,30.09,4.0,West,9.2,-,0.00,,Haze,260,2013-12-26 03:53:00
10:53 PM,24.1,19.0,81,30.09,4.0,West,9.2,-,N/A,,Haze,260,2013-12-26 04:53:00
11:53 PM,25.0,19.9,81,30.09,4.0,West,10.4,-,N/A,,Haze,270,2013-12-26 05:53:00